[[{"header":{"parameterUnit":"m.s-1","parameterCategory":1,"la1":30.2991,"la2":30.254,"lo1":-89.0895,"lo2":-89.0444,"dy":0.0017,"dx":0.0017,"nx":28,"ny":28,"refTime":"2024-02-27T03:00:00:Z","depth":0,"parameterNumber":2,"parameterNumberName":"U-component_of_WINDS"},"data":[0,0,0,0,0,0,0,0,0,0,0,0,0,0,0,0,0,0,0,0,0,0,0,0,0,0,0,0,0,0,0,0,0,0,0,0,0,0,0,0,0,0,0,0,0,0,0,0,0,0,0,0,0,0,0,0,0,0,0.6853,0.6852,0,0.6768,0.6767,0.6766,0.6699,0.6698,0.6697,0.6697,0.6609,0.6607,0.6605,0,0,0,0,0,0,0,0,0,0,0,0,0,0.6957,0.6955,0.6853,0.6852,0.6851,0.6768,0.6767,0.6765,0.6699,0.6698,0.6697,0.6696,0.6609,0.6607,0.6605,0,0,0,0,0,0,0,0,0,0,0,0,0,0.6896,0.6955,0.6853,0.6807,0.6803,0.6768,0.6766,0.6765,0.6699,0.6698,0.6697,0.6696,0.661,0.6607,0.6605,0.6608,0,0,0.6597,0.6596,0,0,0,0,0,0,0,0,0.6899,0.6892,0.6815,0.6811,0.6805,0.6743,0.6771,0.6712,0.6699,0.6738,0.6697,0.6696,0.6654,0.6648,0.6634,0.6604,0.66,0.6597,0.6595,0.6594,0.6593,0,0,0,0,0,0,0,0.6903,0.6895,0.6819,0.6814,0.6808,0.6791,0.6781,0.6759,0.6703,0.6735,0.673,0.6721,0.6651,0.6637,0.6631,0.6599,0.6597,0.6594,0.6593,0.6592,0.6568,0.6569,0,0,0,0,0,0,0.6915,0.6899,0.6822,0.6816,0.6851,0.679,0.6779,0.6764,0.6703,0.6692,0.6722,0.6718,0.6641,0.6634,0.6628,0.6628,0.6594,0.6591,0.659,0.6567,0.6568,0.6569,0,0,0,0,0,0,0.6917,0.6909,0.6825,0.6856,0.6844,0.6789,0.6773,0.6763,0.6748,0.6693,0.6682,0.6717,0.664,0.6632,0.6614,0.6624,0.659,0.6588,0.6566,0.6567,0.6568,0.6628,0,0,0,0,0,0,0.6921,0.691,0.6911,0.6857,0.6843,0.6813,0.6773,0.6762,0.6744,0.6738,0.6686,0.6676,0.6639,0.6618,0.6611,0.662,0.6586,0.6565,0.6566,0.6568,0.6625,0.6632,0.6637,0,0,0,0,0,0.6925,0.6931,0.6911,0.6902,0.6843,0.6814,0.6806,0.6763,0.6745,0.6745,0.671,0.6678,0.6624,0.6617,0.6608,0.6617,0.6564,0.6566,0.6568,0.6623,0.663,0.6637,0,0,0,0,0,0,0.6987,0.6923,0.6901,0.689,0.6858,0.6802,0.6801,0.6772,0.6744,0.674,0.6688,0.6677,0.6665,0.6638,0.6632,0.6617,0.659,0.659,0.6634,0.6641,0.6647,0.6654,0.6584,0,0,0,0,0,0.7,0.6982,0.6926,0.6922,0.6907,0.6857,0.6843,0.6813,0.6777,0.6763,0.6726,0.6693,0.6668,0.6653,0.6627,0.6621,0.6609,0.6622,0.6628,0.6634,0.6635,0.6629,0.6635,0.6576,0.6576,0.6576,0,0,0.7025,0.6988,0.698,0.6934,0.6905,0.6887,0.6846,0.6829,0.6815,0.676,0.6741,0.6713,0.6672,0.666,0.6653,0.6638,0.6648,0.6636,0.6641,0.6639,0.6632,0.6638,0.6643,0.6577,0.6577,0.6577,0,0,0.7063,0.7033,0.7026,0.6999,0.6957,0.6924,0.6922,0.6871,0.685,0.6831,0.6789,0.6772,0.6731,0.6703,0.6684,0.6712,0.6681,0.6705,0.6736,0.6731,0.6736,0.674,0.675,0.6754,0.6706,0.6706,0.6706,0,0.71,0.7072,0.7026,0.7012,0.6993,0.6943,0.6935,0.6911,0.6862,0.685,0.6834,0.6781,0.675,0.6731,0.6738,0.6724,0.6721,0.671,0.6739,0.6742,0.6745,0.6754,0.6758,0.6709,0.6709,0.6708,0.6708,0,0.712,0.7101,0.71,0.7055,0.7036,0.7025,0.6978,0.6964,0.6935,0.6904,0.6884,0.6845,0.6811,0.6804,0.6776,0.6781,0.6773,0.6749,0.6721,0.6755,0.6763,0.6766,0.6714,0.6713,0.6712,0.6711,0,0,0.7194,0.7125,0.7125,0.7104,0.7054,0.7038,0.7025,0.6992,0.6981,0.6949,0.6936,0.6903,0.688,0.6858,0.6827,0.6823,0.6847,0.6799,0.6797,0.6809,0.6851,0.687,0.6874,0.6827,0.6827,0.6828,0.6854,0,0.7224,0.7198,0.7157,0.7144,0.7126,0.7078,0.7067,0.7035,0.7005,0.6985,0.6952,0.6929,0.69,0.6887,0.6881,0.6846,0.6855,0.6843,0.6815,0.6814,0.6827,0.6878,0.6898,0.6925,0.6857,0.6857,0.6858,0,0.7255,0.7227,0.7212,0.7164,0.7155,0.7145,0.7112,0.7093,0.7056,0.7034,0.701,0.6976,0.6959,0.6934,0.691,0.6903,0.6889,0.687,0.6869,0.6865,0.6838,0.6876,0.6932,0.6936,0.6862,0.6861,0.6861,0,0.7311,0.7269,0.7255,0.7239,0.7182,0.7176,0.7152,0.7114,0.7097,0.7067,0.7055,0.7024,0.7007,0.6984,0.6942,0.6927,0.6923,0.6894,0.6904,0.6905,0.6905,0.6906,0.6961,0.6896,0.6896,0.6896,0.6896,0,0.7348,0.7342,0.728,0.7271,0.7262,0.7215,0.7207,0.7178,0.7145,0.713,0.7086,0.7073,0.7018,0.6999,0.6966,0.6951,0.6944,0.6926,0.6917,0.693,0.6932,0.692,0.6917,0.6897,0.6897,0.6897,0.6897,0,0.7409,0.7368,0.7349,0.7297,0.7284,0.728,0.7235,0.7225,0.7193,0.7174,0.7167,0.7116,0.7091,0.7047,0.7008,0.6986,0.6978,0.6963,0.6991,0.6986,0.6999,0.6998,0.7048,0.7052,0.6985,0.6986,0.6986,0,0.7436,0.743,0.7377,0.7365,0.7342,0.7322,0.7304,0.7258,0.7241,0.7198,0.7193,0.7164,0.7139,0.71,0.706,0.703,0.7014,0.7034,0.701,0.7023,0.7015,0.7016,0.7015,0.704,0.704,0.7041,0.7042,0,0.7488,0.7468,0.7444,0.7414,0.7395,0.7368,0.734,0.7331,0.7278,0.7262,0.7235,0.7216,0.7177,0.7149,0.7113,0.7088,0.7056,0.705,0.7051,0.7064,0.708,0.7071,0.7006,0.7049,0.7048,0.7048,0.7047,0.7047,0.7532,0.7525,0.7487,0.7462,0.7436,0.7411,0.7399,0.7366,0.7343,0.7308,0.7282,0.7257,0.722,0.717,0.7146,0.7126,0.7111,0.7113,0.7113,0.7114,0.7119,0.7083,0.7119,0.7119,0.7119,0.7119,0.7119,0,0.7582,0.7555,0.7534,0.7495,0.7476,0.7449,0.7416,0.7401,0.7381,0.7349,0.7325,0.7295,0.7267,0.7225,0.7194,0.7187,0.7171,0.718,0.718,0.7175,0.7134,0.7136,0.7193,0.7193,0.7193,0.7193,0.7193,0.7193,0.7605,0.7591,0.7567,0.7539,0.7512,0.7489,0.7473,0.7449,0.7423,0.7392,0.7369,0.7342,0.7306,0.7272,0.7246,0.7234,0.7225,0.7239,0.7222,0.7185,0.7178,0.7171,0.7173,0.7237,0.7237,0.7265,0.7265,0.7265]},{"header":{"parameterUnit":"m.s-1","parameterCategory":1,"la1":30.2991,"la2":30.254,"lo1":-89.0895,"lo2":-89.0444,"dy":0.0017,"dx":0.0017,"nx":28,"ny":28,"refTime":"2024-02-27T03:00:00:Z","depth":0,"parameterNumber":3,"parameterNumberName":"V-component_of_WINDS"},"data":[0,0,0,0,0,0,0,0,0,0,0,0,0,0,0,0,0,0,0,0,0,0,0,0,0,0,0,0,0,0,0,0,0,0,0,0,0,0,0,0,0,0,0,0,0,0,0,0,0,0,0,0,0,0,0,0,0,0,5.8582,5.8583,0,5.8619,5.862,5.862,5.8581,5.8579,5.8578,5.8576,5.8614,5.8616,5.8619,0,0,0,0,0,0,0,0,0,0,0,0,0,5.8479,5.8481,5.8582,5.8583,5.8583,5.8619,5.862,5.862,5.8581,5.8579,5.8577,5.8576,5.8613,5.8616,5.8619,0,0,0,0,0,0,0,0,0,0,0,0,0,5.8521,5.8482,5.8582,5.8568,5.8567,5.8619,5.862,5.862,5.8581,5.8579,5.8577,5.8575,5.8612,5.8616,5.8619,5.8687,0,0,5.863,5.8632,0,0,0,0,0,0,0,0,5.8518,5.8525,5.857,5.8569,5.8568,5.8593,5.8597,5.8643,5.8582,5.8576,5.8576,5.8574,5.8609,5.8613,5.8624,5.8689,5.869,5.8631,5.8633,5.8634,5.8635,0,0,0,0,0,0,0,5.8516,5.8523,5.8597,5.857,5.857,5.856,5.8564,5.8605,5.8605,5.8576,5.8574,5.8578,5.8608,5.8621,5.8625,5.8691,5.8631,5.8634,5.8636,5.8637,5.8814,5.8817,0,0,0,0,0,0,5.8514,5.8521,5.8596,5.8598,5.8537,5.8564,5.8568,5.8587,5.8604,5.8604,5.858,5.8577,5.8616,5.8621,5.8626,5.8708,5.8634,5.8638,5.864,5.8812,5.8815,5.8818,0,0,0,0,0,0,5.8512,5.8521,5.8594,5.8559,5.8567,5.8568,5.859,5.8589,5.8602,5.8607,5.8607,5.8594,5.8614,5.8621,5.8673,5.8709,5.8639,5.8643,5.8809,5.8813,5.8816,5.8871,0,0,0,0,0,0,5.8509,5.8521,5.8546,5.8559,5.8569,5.864,5.8593,5.8592,5.8609,5.8604,5.862,5.862,5.8613,5.8667,5.8676,5.8713,5.8646,5.8806,5.881,5.8815,5.8866,5.8877,5.8885,0,0,0,0,0,5.8506,5.856,5.8548,5.8557,5.8601,5.8642,5.8648,5.8638,5.8612,5.8638,5.8641,5.862,5.8703,5.8673,5.8682,5.8721,5.8803,5.8809,5.8815,5.8862,5.8875,5.8885,0,0,0,0,0,0,5.8551,5.8561,5.8548,5.8608,5.8624,5.8635,5.8668,5.8652,5.8676,5.8671,5.8658,5.8662,5.8717,5.8723,5.869,5.8788,5.8749,5.8757,5.8782,5.8794,5.8803,5.8801,5.8649,0,0,0,0,0,5.8567,5.86,5.8607,5.8659,5.8668,5.8667,5.8684,5.8676,5.8692,5.8699,5.8706,5.8723,5.8753,5.8773,5.8801,5.8867,5.8871,5.8898,5.8907,5.8915,5.8922,5.8959,5.8972,5.8836,5.8836,5.8836,0,0,5.8603,5.8612,5.8634,5.8669,5.8681,5.8715,5.8673,5.871,5.8736,5.8705,5.8755,5.876,5.8778,5.8838,5.8864,5.8845,5.8961,5.8922,5.8928,5.8932,5.8967,5.8979,5.8991,5.884,5.8839,5.8839,0,0,5.8685,5.8695,5.874,5.8753,5.8772,5.877,5.8781,5.8795,5.8798,5.8847,5.8825,5.8855,5.8907,5.8922,5.8936,5.9025,5.9007,5.9034,5.9084,5.912,5.9131,5.9141,5.9174,5.9186,5.9041,5.9041,5.9041,0,5.8726,5.8777,5.8766,5.8806,5.8822,5.8796,5.8843,5.8855,5.8882,5.8895,5.8872,5.8938,5.8948,5.9012,5.9033,5.9045,5.9058,5.9033,5.913,5.914,5.9149,5.9181,5.9193,5.9044,5.9044,5.9044,5.9043,0,5.8828,5.8864,5.8898,5.8926,5.8946,5.8989,5.8985,5.9007,5.8997,5.8998,5.905,5.9061,5.9092,5.9106,5.9096,5.9168,5.9156,5.9132,5.9093,5.9165,5.9195,5.9207,5.9049,5.9048,5.9047,5.9046,0,0,5.894,5.8961,5.8974,5.8987,5.9006,5.9034,5.9076,5.9106,5.9126,5.9145,5.9181,5.9226,5.9205,5.9221,5.9213,5.9244,5.9317,5.9217,5.9217,5.9237,5.9399,5.9418,5.9433,5.9304,5.9306,5.9308,5.9398,0,5.9024,5.9098,5.9089,5.916,5.9194,5.9169,5.9206,5.9222,5.9224,5.9254,5.9256,5.9289,5.9257,5.9267,5.9297,5.9301,5.9349,5.9294,5.9339,5.9341,5.9337,5.9448,5.9468,5.9553,5.941,5.9412,5.9413,0,5.9132,5.9157,5.9231,5.9246,5.926,5.9293,5.9321,5.9349,5.9367,5.9367,5.9385,5.9372,5.9415,5.9374,5.9434,5.9397,5.9415,5.942,5.9423,5.9428,5.9383,5.9458,5.9579,5.9593,5.9431,5.943,5.9428,0,5.9209,5.926,5.9312,5.9323,5.9342,5.9366,5.9375,5.9391,5.941,5.9434,5.9447,5.9475,5.9492,5.9515,5.9509,5.948,5.9572,5.953,5.9574,5.9574,5.9596,5.9595,5.9724,5.9604,5.9604,5.9603,5.9603,0,5.9305,5.9352,5.9347,5.9379,5.9431,5.9421,5.9473,5.9478,5.9493,5.9526,5.9506,5.9537,5.9527,5.9559,5.9555,5.9607,5.9613,5.9615,5.9614,5.9618,5.9618,5.9631,5.9626,5.9607,5.9606,5.9605,5.9605,0,5.9401,5.9399,5.9454,5.9467,5.9471,5.951,5.9521,5.9552,5.9552,5.9595,5.9604,5.9605,5.9641,5.9638,5.9678,5.9676,5.974,5.9731,5.9735,5.9733,5.9779,5.9775,5.9921,5.9941,5.9807,5.9808,5.9809,0,5.9463,5.9499,5.9516,5.9537,5.9548,5.9582,5.9602,5.9593,5.9615,5.9639,5.9667,5.9701,5.9728,5.9786,5.9791,5.9822,5.9815,5.9864,5.9819,5.9823,5.9818,5.9817,5.9822,5.9873,5.9875,5.9876,5.9877,0,5.9575,5.9573,5.9602,5.9632,5.9656,5.9679,5.97,5.9718,5.9711,5.9737,5.9774,5.9795,5.9836,5.9871,5.9901,5.991,5.9894,5.9891,5.9903,5.9909,5.9911,5.9913,5.9761,5.9888,5.9887,5.9886,5.9885,5.9885,5.9657,5.9689,5.9707,5.9741,5.9755,5.9776,5.9806,5.981,5.9841,5.9874,5.9867,5.9909,5.9927,5.9965,5.9978,6.0011,5.9993,6.001,6.0015,6.002,6.0026,5.9904,6.0016,6.0015,6.0015,6.0015,6.0015,0,5.977,5.9781,5.9812,5.9842,5.9869,5.985,5.9873,5.9897,5.9934,5.9952,5.998,6.0023,6.0057,6.0064,6.0097,6.0122,6.0116,6.0131,6.013,6.0133,6.0039,6.0026,6.0136,6.0136,6.0136,6.0136,6.0136,6.0136,5.9832,5.9885,5.9885,5.9946,5.9955,5.9997,6.0011,6.003,6.0045,6.0094,6.0122,6.0127,6.0142,6.0175,6.0206,6.0207,6.0221,6.0241,6.024,6.0152,6.014,6.0128,6.0116,6.0243,6.0243,6.0331,6.0332,6.0333]}]]